Time,TemperatureF,DewpointF,PressureIn,WindDirection,WindDirectionDegrees,WindSpeedMPH,WindSpeedGustMPH,Humidity,HourlyPrecipIn,Conditions,Clouds,dailyrainin,SoftwareType,DateUTC
2013-08-14 00:01:00,61.8,50.3,29.89,SW,234,10.0,25.0,66,0.00,,---,0.00,VWS V13.00,2013-08-14 06:01:00,
2013-08-14 00:06:00,61.8,49.9,29.89,SW,229,7.0,25.0,65,0.00,,---,0.00,VWS V13.00,2013-08-14 06:06:00,
2013-08-14 00:11:00,61.8,50.3,29.88,WSW,242,11.0,16.0,66,0.00,,---,0.00,VWS V13.00,2013-08-14 06:11:00,
2013-08-14 00:16:00,61.9,50.0,29.88,WSW,246,7.0,17.0,65,0.00,,---,0.00,VWS V13.00,2013-08-14 06:16:00,
2013-08-14 00:21:00,62.0,49.7,29.88,WSW,249,4.0,17.0,64,0.00,,---,0.00,VWS V13.00,2013-08-14 06:21:00,
2013-08-14 00:26:00,62.0,50.1,29.87,NW,306,0.0,17.0,65,0.00,,---,0.00,VWS V13.00,2013-08-14 06:26:00,
2013-08-14 00:31:00,61.9,50.0,29.87,NE,40,0.0,17.0,65,0.00,,---,0.00,VWS V13.00,2013-08-14 06:31:00,
2013-08-14 00:36:00,61.6,49.7,29.87,ESE,104,0.0,17.0,65,0.00,,---,0.00,VWS V13.00,2013-08-14 06:36:00,
2013-08-14 00:41:00,61.3,49.5,29.87,ESE,110,0.0,0.0,65,0.00,,---,0.00,VWS V13.00,2013-08-14 06:41:00,
2013-08-14 00:46:00,61.3,49.5,29.87,ESE,111,0.0,0.0,65,0.00,,---,0.00,VWS V13.00,2013-08-14 06:46:00,
2013-08-14 00:51:00,61.3,49.5,29.87,ESE,110,0.0,0.0,65,0.00,,---,0.00,VWS V13.00,2013-08-14 06:51:00,
2013-08-14 00:56:00,61.3,49.5,29.87,ESE,110,0.0,0.0,65,0.00,,---,0.00,VWS V13.00,2013-08-14 06:56:00,
2013-08-14 01:01:00,61.2,49.3,29.87,ESE,111,0.0,0.0,65,0.00,,---,0.00,VWS V13.00,2013-08-14 07:01:00,
2013-08-14 01:06:00,61.2,48.9,29.87,ESE,111,0.0,0.0,64,0.00,,---,0.00,VWS V13.00,2013-08-14 07:06:00,
2013-08-14 01:11:00,61.2,48.5,29.88,ESE,111,0.0,0.0,63,0.00,,---,0.00,VWS V13.00,2013-08-14 07:11:00,
2013-08-14 01:16:00,61.4,49.1,29.88,ESE,111,0.0,0.0,64,0.00,,---,0.00,VWS V13.00,2013-08-14 07:16:00,
2013-08-14 01:21:00,61.5,49.2,29.88,ESE,117,0.0,0.0,64,0.00,,---,0.00,VWS V13.00,2013-08-14 07:21:00,
2013-08-14 01:26:00,61.4,49.1,29.86,ESE,121,0.0,0.0,64,0.00,,---,0.00,VWS V13.00,2013-08-14 07:26:00,
2013-08-14 01:31:00,61.4,49.1,29.86,ESE,121,0.0,0.0,64,0.00,,---,0.00,VWS V13.00,2013-08-14 07:31:00,
2013-08-14 01:36:00,61.5,49.2,29.86,NE,48,0.0,0.0,64,0.00,,---,0.00,VWS V13.00,2013-08-14 07:36:00,
2013-08-14 01:41:00,61.6,49.3,29.86,NE,49,0.0,0.0,64,0.00,,---,0.00,VWS V13.00,2013-08-14 07:41:00,
2013-08-14 01:46:00,61.7,49.0,29.86,NE,49,0.0,0.0,63,0.00,,---,0.00,VWS V13.00,2013-08-14 07:46:00,
2013-08-14 01:51:00,61.8,49.5,29.86,NE,49,0.0,0.0,64,0.00,,---,0.00,VWS V13.00,2013-08-14 07:51:00,
2013-08-14 01:56:00,61.8,49.9,29.85,NE,48,0.0,0.0,65,0.00,,---,0.00,VWS V13.00,2013-08-14 07:56:00,
2013-08-14 02:01:00,61.3,49.5,29.85,NE,48,0.0,0.0,65,0.00,,---,0.00,VWS V13.00,2013-08-14 08:01:00,
2013-08-14 02:06:00,61.2,49.3,29.85,NE,49,0.0,0.0,65,0.00,,---,0.00,VWS V13.00,2013-08-14 08:06:00,
2013-08-14 02:11:00,60.9,49.5,29.85,SW,232,0.0,0.0,66,0.00,,---,0.00,VWS V13.00,2013-08-14 08:11:00,
2013-08-14 02:16:00,60.4,49.0,29.85,SW,223,4.0,10.0,66,0.00,,---,0.00,VWS V13.00,2013-08-14 08:16:00,
2013-08-14 02:21:00,59.9,48.9,29.85,SW,222,5.0,12.0,67,0.00,,---,0.00,VWS V13.00,2013-08-14 08:21:00,
2013-08-14 02:26:00,59.8,48.4,29.86,SW,219,0.0,12.0,66,0.00,,---,0.00,VWS V13.00,2013-08-14 08:26:00,
2013-08-14 02:31:00,59.9,48.5,29.86,SW,228,4.0,12.0,66,0.00,,---,0.00,VWS V13.00,2013-08-14 08:31:00,
2013-08-14 02:36:00,60.3,48.9,29.86,SW,225,0.0,12.0,66,0.00,,---,0.00,VWS V13.00,2013-08-14 08:36:00,
2013-08-14 02:41:00,60.4,49.0,29.85,SW,215,0.0,0.0,66,0.00,,---,0.00,VWS V13.00,2013-08-14 08:41:00,
2013-08-14 02:46:00,60.5,48.7,29.85,SW,215,0.0,0.0,65,0.00,,---,0.00,VWS V13.00,2013-08-14 08:46:00,
2013-08-14 02:51:00,60.6,48.4,29.85,SW,215,0.0,0.0,64,0.00,,---,0.00,VWS V13.00,2013-08-14 08:51:00,
2013-08-14 02:56:00,60.5,48.7,29.85,SW,215,0.0,0.0,65,0.00,,---,0.00,VWS V13.00,2013-08-14 08:56:00,
2013-08-14 03:01:00,60.1,48.7,29.85,SW,215,0.0,0.0,66,0.00,,---,0.00,VWS V13.00,2013-08-14 09:01:00,
2013-08-14 03:06:00,59.0,48.5,29.85,SSW,211,0.0,0.0,68,0.00,,---,0.00,VWS V13.00,2013-08-14 09:06:00,
2013-08-14 03:11:00,58.4,48.7,29.86,SSW,210,0.0,0.0,70,0.00,,---,0.00,VWS V13.00,2013-08-14 09:11:00,
2013-08-14 03:16:00,57.7,48.4,29.86,SSW,208,0.0,0.0,71,0.00,,---,0.00,VWS V13.00,2013-08-14 09:16:00,
2013-08-14 03:21:00,57.1,48.5,29.86,SSW,203,0.0,0.0,73,0.00,,---,0.00,VWS V13.00,2013-08-14 09:21:00,
2013-08-14 03:26:00,56.2,48.4,29.86,SSE,150,1.0,2.0,75,0.00,,---,0.00,VWS V13.00,2013-08-14 09:26:00,
2013-08-14 03:31:00,55.7,48.3,29.86,SE,144,0.0,2.0,76,0.00,,---,0.00,VWS V13.00,2013-08-14 09:31:00,
2013-08-14 03:36:00,55.1,48.4,29.86,ESE,118,2.0,3.0,78,0.00,,---,0.00,VWS V13.00,2013-08-14 09:36:00,
2013-08-14 03:41:00,54.9,48.2,29.88,ESE,115,0.0,0.0,78,0.00,,---,0.00,VWS V13.00,2013-08-14 09:41:00,
2013-08-14 03:46:00,54.9,48.5,29.88,ESE,115,0.0,0.0,79,0.00,,---,0.00,VWS V13.00,2013-08-14 09:46:00,
2013-08-14 03:51:00,54.9,48.5,29.88,SE,136,0.0,0.0,79,0.00,,---,0.00,VWS V13.00,2013-08-14 09:51:00,
2013-08-14 03:56:00,55.1,48.4,29.90,SE,136,0.0,0.0,78,0.00,,---,0.00,VWS V13.00,2013-08-14 09:56:00,
2013-08-14 04:01:00,55.3,48.6,29.90,SE,136,0.0,0.0,78,0.00,,---,0.00,VWS V13.00,2013-08-14 10:01:00,
2013-08-14 04:06:00,55.3,48.6,29.90,SE,136,0.0,0.0,78,0.00,,---,0.00,VWS V13.00,2013-08-14 10:06:00,
2013-08-14 04:11:00,55.3,48.6,29.90,SE,136,0.0,0.0,78,0.00,,---,0.00,VWS V13.00,2013-08-14 10:11:00,
2013-08-14 04:15:00,55.2,48.8,29.90,SE,136,0.0,0.0,79,0.00,,---,0.00,VWS V13.00,2013-08-14 10:15:00,
2013-08-14 04:20:00,55.0,48.6,29.90,SE,136,0.0,0.0,79,0.00,,---,0.00,VWS V13.00,2013-08-14 10:20:00,
2013-08-14 04:25:00,54.8,48.4,29.90,SE,136,0.0,0.0,79,0.00,,---,0.00,VWS V13.00,2013-08-14 10:25:00,
2013-08-14 04:30:00,54.8,48.4,29.90,SE,136,0.0,0.0,79,0.00,,---,0.00,VWS V13.00,2013-08-14 10:30:00,
2013-08-14 04:35:00,54.9,48.9,29.90,SE,134,0.0,3.0,80,0.00,,---,0.00,VWS V13.00,2013-08-14 10:35:00,
2013-08-14 04:40:00,55.0,49.0,29.89,SE,142,6.0,6.0,80,0.00,,---,0.00,VWS V13.00,2013-08-14 10:40:00,
2013-08-14 04:45:00,55.0,49.0,29.89,SE,142,5.0,8.0,80,0.00,,---,0.00,VWS V13.00,2013-08-14 10:45:00,
2013-08-14 04:50:00,55.2,49.2,29.89,SE,140,0.0,8.0,80,0.00,,---,0.00,VWS V13.00,2013-08-14 10:50:00,
2013-08-14 04:55:00,55.4,49.0,29.89,SE,140,4.0,8.0,79,0.00,,---,0.00,VWS V13.00,2013-08-14 10:55:00,
2013-08-14 05:00:00,55.7,49.0,29.89,SE,137,4.0,8.0,78,0.00,,---,0.00,VWS V13.00,2013-08-14 11:00:00,
2013-08-14 05:05:00,56.0,49.2,29.89,SE,135,6.0,9.0,78,0.00,,---,0.00,VWS V13.00,2013-08-14 11:05:00,
2013-08-14 05:10:00,56.0,49.2,29.89,ESE,122,0.0,6.0,78,0.00,,---,0.00,VWS V13.00,2013-08-14 11:10:00,
2013-08-14 05:15:00,55.8,49.4,29.89,SE,126,0.0,6.0,79,0.00,,---,0.00,VWS V13.00,2013-08-14 11:15:00,
2013-08-14 05:20:00,55.8,49.4,29.89,SE,132,5.0,6.0,79,0.00,,---,0.00,VWS V13.00,2013-08-14 11:20:00,
2013-08-14 05:25:00,56.1,49.3,29.89,SE,127,5.0,7.0,78,0.00,,---,0.00,VWS V13.00,2013-08-14 11:25:00,
2013-08-14 05:30:00,56.3,49.5,29.89,SE,130,5.0,7.0,78,0.00,,---,0.00,VWS V13.00,2013-08-14 11:30:00,
2013-08-14 05:35:00,56.5,49.4,29.89,SE,136,5.0,7.0,77,0.00,,---,0.00,VWS V13.00,2013-08-14 11:35:00,
2013-08-14 05:40:00,56.6,49.5,29.88,SE,136,4.0,4.0,77,0.00,,---,0.00,VWS V13.00,2013-08-14 11:40:00,
2013-08-14 05:45:00,56.6,49.5,29.88,SE,136,0.0,4.0,77,0.00,,---,0.00,VWS V13.00,2013-08-14 11:45:00,
2013-08-14 05:50:00,56.6,49.5,29.88,SE,136,0.0,4.0,77,0.00,,---,0.00,VWS V13.00,2013-08-14 11:50:00,
2013-08-14 05:55:00,56.6,49.5,29.90,SE,136,0.0,4.0,77,0.00,,---,0.00,VWS V13.00,2013-08-14 11:55:00,
2013-08-14 06:00:00,56.6,49.5,29.90,SE,136,0.0,4.0,77,0.00,,---,0.00,VWS V13.00,2013-08-14 12:00:00,
2013-08-14 06:05:00,56.6,49.5,29.90,SE,136,0.0,4.0,77,0.00,,---,0.00,VWS V13.00,2013-08-14 12:05:00,
2013-08-14 06:10:00,56.6,49.5,29.90,SSE,162,0.0,0.0,77,0.00,,---,0.00,VWS V13.00,2013-08-14 12:10:00,
2013-08-14 06:15:00,56.6,49.5,29.90,SW,234,4.0,7.0,77,0.00,,---,0.00,VWS V13.00,2013-08-14 12:15:00,
2013-08-14 06:20:00,56.6,49.5,29.90,SW,231,7.0,10.0,77,0.00,,---,0.00,VWS V13.00,2013-08-14 12:20:00,
2013-08-14 06:25:00,56.6,49.5,29.90,SW,232,6.0,10.0,77,0.00,,---,0.00,VWS V13.00,2013-08-14 12:25:00,
2013-08-14 06:30:00,56.4,49.6,29.90,SW,233,6.0,10.0,78,0.00,,---,0.00,VWS V13.00,2013-08-14 12:30:00,
2013-08-14 06:35:00,56.3,49.9,29.90,WSW,240,7.0,10.0,79,0.00,,---,0.00,VWS V13.00,2013-08-14 12:35:00,
2013-08-14 06:40:00,56.1,49.7,29.90,WSW,244,7.0,9.0,79,0.00,,---,0.00,VWS V13.00,2013-08-14 12:40:00,
2013-08-14 06:45:00,56.0,49.6,29.90,SW,232,6.0,9.0,79,0.00,,---,0.00,VWS V13.00,2013-08-14 12:45:00,
2013-08-14 06:50:00,55.8,49.4,29.90,SW,228,0.0,9.0,79,0.00,,---,0.00,VWS V13.00,2013-08-14 12:50:00,
2013-08-14 06:55:00,55.8,49.7,29.91,SW,229,0.0,9.0,80,0.00,,---,0.00,VWS V13.00,2013-08-14 12:55:00,
2013-08-14 07:00:00,55.8,49.7,29.91,SW,227,0.0,9.0,80,0.00,,---,0.00,VWS V13.00,2013-08-14 13:00:00,
2013-08-14 07:05:00,55.8,49.4,29.91,SW,234,0.0,9.0,79,0.00,,---,0.00,VWS V13.00,2013-08-14 13:05:00,
2013-08-14 07:10:00,56.0,49.2,29.91,SW,225,0.0,0.0,78,0.00,,---,0.00,VWS V13.00,2013-08-14 13:10:00,
2013-08-14 07:15:00,56.0,48.9,29.91,SW,225,0.0,0.0,77,0.00,,---,0.00,VWS V13.00,2013-08-14 13:15:00,
2013-08-14 07:20:00,56.2,49.1,29.91,SW,225,0.0,0.0,77,0.00,,---,0.00,VWS V13.00,2013-08-14 13:20:00,
2013-08-14 07:25:00,56.4,48.9,29.91,SW,225,0.0,0.0,76,0.00,,---,0.00,VWS V13.00,2013-08-14 13:25:00,
2013-08-14 07:30:00,56.5,49.7,29.91,SW,225,0.0,0.0,78,0.00,,---,0.00,VWS V13.00,2013-08-14 13:30:00,
2013-08-14 07:35:00,56.6,50.5,29.91,SW,225,0.0,0.0,80,0.00,,---,0.00,VWS V13.00,2013-08-14 13:35:00,
2013-08-14 07:40:00,56.8,50.4,29.91,SW,225,0.0,0.0,79,0.00,,---,0.00,VWS V13.00,2013-08-14 13:40:00,
2013-08-14 07:45:00,57.1,50.7,29.91,SW,225,0.0,0.0,79,0.00,,---,0.00,VWS V13.00,2013-08-14 13:45:00,
2013-08-14 07:50:00,57.2,50.8,29.91,SW,225,0.0,0.0,79,0.00,,---,0.00,VWS V13.00,2013-08-14 13:50:00,
2013-08-14 07:55:00,56.7,50.3,29.92,SW,224,0.0,0.0,79,0.00,,---,0.00,VWS V13.00,2013-08-14 13:55:00,
2013-08-14 08:00:00,56.1,50.4,29.92,SSW,210,0.0,0.0,81,0.00,,---,0.00,VWS V13.00,2013-08-14 14:00:00,
2013-08-14 08:05:00,56.4,50.3,29.92,SSW,211,0.0,0.0,80,0.00,,---,0.00,VWS V13.00,2013-08-14 14:05:00,
2013-08-14 08:10:00,57.2,51.4,29.92,SSW,210,0.0,0.0,81,0.00,,---,0.00,VWS V13.00,2013-08-14 14:10:00,
2013-08-14 08:15:00,58.1,51.3,29.92,SSW,197,0.0,0.0,78,0.00,,---,0.00,VWS V13.00,2013-08-14 14:15:00,
2013-08-14 08:20:00,58.8,51.6,29.92,South,175,0.0,0.0,77,0.00,,---,0.00,VWS V13.00,2013-08-14 14:20:00,
2013-08-14 08:25:00,59.0,51.5,29.91,SSE,149,0.0,0.0,76,0.00,,---,0.00,VWS V13.00,2013-08-14 14:25:00,
2013-08-14 08:30:00,59.4,51.5,29.91,SE,132,2.0,4.0,75,0.00,,---,0.00,VWS V13.00,2013-08-14 14:30:00,
2013-08-14 08:35:00,59.8,51.9,29.91,SE,132,0.0,4.0,75,0.00,,---,0.00,VWS V13.00,2013-08-14 14:35:00,
2013-08-14 08:40:00,60.4,52.1,29.91,SE,132,0.0,0.0,74,0.00,,---,0.00,VWS V13.00,2013-08-14 14:40:00,
2013-08-14 08:45:00,60.9,52.2,29.91,SE,132,0.0,0.0,73,0.00,,---,0.00,VWS V13.00,2013-08-14 14:45:00,
2013-08-14 08:50:00,61.4,52.7,29.91,SE,132,0.0,0.0,73,0.00,,---,0.00,VWS V13.00,2013-08-14 14:50:00,
2013-08-14 08:55:00,61.9,52.4,29.89,SE,132,0.0,0.0,71,0.00,,---,0.00,VWS V13.00,2013-08-14 14:55:00,
2013-08-14 09:00:00,62.5,53.0,29.89,SE,132,0.0,0.0,71,0.00,,---,0.00,VWS V13.00,2013-08-14 15:00:00,
2013-08-14 09:05:00,63.1,53.6,29.89,SE,132,0.0,0.0,71,0.00,,---,0.00,VWS V13.00,2013-08-14 15:05:00,
2013-08-14 09:10:00,63.6,52.9,29.88,SE,132,0.0,0.0,68,0.00,,---,0.00,VWS V13.00,2013-08-14 15:10:00,
2013-08-14 09:15:00,64.1,53.3,29.88,SE,132,0.0,0.0,68,0.00,,---,0.00,VWS V13.00,2013-08-14 15:15:00,
2013-08-14 09:20:00,64.7,54.3,29.88,SE,132,0.0,0.0,69,0.00,,---,0.00,VWS V13.00,2013-08-14 15:20:00,
2013-08-14 09:25:00,65.2,54.4,29.87,SE,132,0.0,0.0,68,0.00,,---,0.00,VWS V13.00,2013-08-14 15:25:00,
2013-08-14 09:30:00,65.7,53.6,29.87,SE,132,0.0,0.0,65,0.00,,---,0.00,VWS V13.00,2013-08-14 15:30:00,
2013-08-14 09:35:00,66.2,54.1,29.87,ESE,123,0.0,0.0,65,0.00,,---,0.00,VWS V13.00,2013-08-14 15:35:00,
2013-08-14 09:40:00,66.6,53.6,29.87,SE,124,0.0,0.0,63,0.00,,---,0.00,VWS V13.00,2013-08-14 15:40:00,
2013-08-14 09:45:00,67.0,53.1,29.87,SE,124,0.0,0.0,61,0.00,,---,0.00,VWS V13.00,2013-08-14 15:45:00,
2013-08-14 09:50:00,67.3,53.0,29.87,SE,124,0.0,0.0,60,0.00,,---,0.00,VWS V13.00,2013-08-14 15:50:00,
2013-08-14 09:55:00,67.9,54.0,29.86,SE,124,0.0,0.0,61,0.00,,---,0.00,VWS V13.00,2013-08-14 15:55:00,
2013-08-14 10:00:00,68.3,53.0,29.86,ESE,123,0.0,0.0,58,0.00,,---,0.00,VWS V13.00,2013-08-14 16:00:00,
2013-08-14 10:05:00,68.7,55.2,29.86,ESE,122,0.0,0.0,62,0.00,,---,0.00,VWS V13.00,2013-08-14 16:05:00,
2013-08-14 10:10:00,69.1,52.8,29.85,ESE,123,0.0,0.0,56,0.00,,---,0.00,VWS V13.00,2013-08-14 16:10:00,
2013-08-14 10:15:00,69.4,52.0,29.85,ESE,123,0.0,0.0,54,0.00,,---,0.00,VWS V13.00,2013-08-14 16:15:00,
2013-08-14 10:21:00,69.7,50.8,29.85,ESE,123,0.0,0.0,51,0.00,,---,0.00,VWS V13.00,2013-08-14 16:21:00,
2013-08-14 10:26:00,70.2,52.8,29.84,ESE,122,0.0,0.0,54,0.00,,---,0.00,VWS V13.00,2013-08-14 16:26:00,
2013-08-14 10:31:00,70.7,53.3,29.84,ESE,123,0.0,1.0,54,0.00,,---,0.00,VWS V13.00,2013-08-14 16:31:00,
2013-08-14 10:36:00,71.1,51.5,29.84,SW,233,0.0,1.0,50,0.00,,---,0.00,VWS V13.00,2013-08-14 16:36:00,
2013-08-14 10:41:00,71.3,50.6,29.84,SW,234,0.0,0.0,48,0.00,,---,0.00,VWS V13.00,2013-08-14 16:41:00,
2013-08-14 10:46:00,71.7,52.1,29.84,SW,234,0.0,0.0,50,0.00,,---,0.00,VWS V13.00,2013-08-14 16:46:00,
2013-08-14 10:52:00,72.1,53.0,29.85,WSW,238,0.0,0.0,51,0.00,,---,0.00,VWS V13.00,2013-08-14 16:52:00,
2013-08-14 10:57:00,72.4,52.2,29.85,NNW,331,0.0,5.0,49,0.00,,---,0.00,VWS V13.00,2013-08-14 16:57:00,
2013-08-14 11:02:00,72.4,51.0,29.85,NW,319,0.0,6.0,47,0.00,,---,0.00,VWS V13.00,2013-08-14 17:02:00,
2013-08-14 11:07:00,72.6,52.4,29.85,NNW,340,5.0,6.0,49,0.00,,---,0.00,VWS V13.00,2013-08-14 17:07:00,
2013-08-14 11:12:00,72.7,53.0,29.85,NW,317,4.0,7.0,50,0.00,,---,0.00,VWS V13.00,2013-08-14 17:12:00,
2013-08-14 11:17:00,72.7,51.3,29.85,NW,318,5.0,9.0,47,0.00,,---,0.00,VWS V13.00,2013-08-14 17:17:00,
2013-08-14 11:22:00,72.8,51.4,29.85,NW,319,0.0,9.0,47,0.00,,---,0.00,VWS V13.00,2013-08-14 17:22:00,
2013-08-14 11:27:00,73.0,53.3,29.85,WNW,290,0.0,9.0,50,0.00,,---,0.00,VWS V13.00,2013-08-14 17:27:00,
2013-08-14 11:32:00,73.4,51.4,29.85,WNW,302,0.0,9.0,46,0.00,,---,0.00,VWS V13.00,2013-08-14 17:32:00,
2013-08-14 11:37:00,73.7,51.7,29.85,WNW,302,0.0,0.0,46,0.00,,---,0.00,VWS V13.00,2013-08-14 17:37:00,
2013-08-14 11:42:00,74.0,51.3,29.85,NW,306,0.0,0.0,45,0.00,,---,0.00,VWS V13.00,2013-08-14 17:42:00,
2013-08-14 11:47:00,74.2,54.4,29.85,North,5,4.0,9.0,50,0.00,,---,0.00,VWS V13.00,2013-08-14 17:47:00,
2013-08-14 11:52:00,74.3,55.6,29.84,NE,53,3.0,9.0,52,0.00,,---,0.00,VWS V13.00,2013-08-14 17:52:00,
2013-08-14 11:57:00,74.5,54.1,29.84,NNE,32,6.0,10.0,49,0.00,,---,0.00,VWS V13.00,2013-08-14 17:57:00,
2013-08-14 12:02:00,74.8,53.2,29.84,NNE,28,3.0,10.0,47,0.00,,---,0.00,VWS V13.00,2013-08-14 18:02:00,
2013-08-14 12:08:00,75.1,52.9,29.84,NNE,24,4.0,5.0,46,0.00,,---,0.00,VWS V13.00,2013-08-14 18:08:00,
2013-08-14 12:13:00,75.4,52.0,29.84,NNE,24,0.0,5.0,44,0.00,,---,0.00,VWS V13.00,2013-08-14 18:13:00,
2013-08-14 12:19:00,75.5,52.7,29.84,North,360,0.0,5.0,45,0.00,,---,0.00,VWS V13.00,2013-08-14 18:19:00,
2013-08-14 12:24:00,75.9,54.8,29.84,North,360,0.0,5.0,48,0.00,,---,0.00,VWS V13.00,2013-08-14 18:24:00,
2013-08-14 12:29:00,76.4,52.3,29.84,SSE,155,0.0,6.0,43,0.00,,---,0.00,VWS V13.00,2013-08-14 18:29:00,
2013-08-14 12:34:00,76.6,54.3,29.84,East,101,3.0,6.0,46,0.00,,---,0.00,VWS V13.00,2013-08-14 18:34:00,
2013-08-14 12:39:00,76.9,52.7,29.83,East,101,0.0,0.0,43,0.00,,---,0.00,VWS V13.00,2013-08-14 18:39:00,
2013-08-14 12:44:00,77.1,54.2,29.83,NNE,22,0.0,9.0,45,0.00,,---,0.00,VWS V13.00,2013-08-14 18:44:00,
2013-08-14 12:49:00,77.3,52.5,29.83,NE,51,0.0,9.0,42,0.00,,---,0.00,VWS V13.00,2013-08-14 18:49:00,
2013-08-14 12:54:00,77.4,51.9,29.83,East,79,0.0,9.0,41,0.00,,---,0.00,VWS V13.00,2013-08-14 18:54:00,
2013-08-14 12:59:00,77.8,52.2,29.83,NNE,20,0.0,9.0,41,0.00,,---,0.00,VWS V13.00,2013-08-14 18:59:00,
2013-08-14 13:04:00,78.2,51.2,29.83,NE,56,3.0,9.0,39,0.00,,---,0.00,VWS V13.00,2013-08-14 19:04:00,
2013-08-14 13:12:00,78.3,53.3,29.82,NE,40,4.0,5.0,42,0.00,,---,0.00,VWS V13.00,2013-08-14 19:12:00,
2013-08-14 13:17:00,78.5,52.9,29.82,NNE,14,0.0,10.0,41,0.00,,---,0.00,VWS V13.00,2013-08-14 19:17:00,
2013-08-14 13:22:00,78.7,53.7,29.82,North,9,7.0,10.0,42,0.00,,---,0.00,VWS V13.00,2013-08-14 19:22:00,
2013-08-14 13:28:00,78.7,50.3,29.82,North,349,4.0,10.0,37,0.00,,---,0.00,VWS V13.00,2013-08-14 19:28:00,
2013-08-14 13:33:00,78.5,54.2,29.82,NNW,329,0.0,10.0,43,0.00,,---,0.00,VWS V13.00,2013-08-14 19:33:00,
2013-08-14 13:38:00,78.2,51.9,29.82,NW,306,0.0,0.0,40,0.00,,---,0.00,VWS V13.00,2013-08-14 19:38:00,
2013-08-14 13:43:00,78.1,51.2,29.82,NW,306,0.0,0.0,39,0.00,,---,0.00,VWS V13.00,2013-08-14 19:43:00,
2013-08-14 13:48:00,78.4,52.8,29.82,NW,319,3.0,5.0,41,0.00,,---,0.00,VWS V13.00,2013-08-14 19:48:00,
2013-08-14 13:53:00,78.5,50.1,29.82,NNW,338,6.0,7.0,37,0.00,,---,0.00,VWS V13.00,2013-08-14 19:53:00,
2013-08-14 13:58:00,78.1,50.5,29.82,NW,313,3.0,9.0,38,0.00,,---,0.00,VWS V13.00,2013-08-14 19:58:00,
2013-08-14 14:03:00,77.7,54.7,29.82,NW,313,0.0,9.0,45,0.00,,---,0.00,VWS V13.00,2013-08-14 20:03:00,
2013-08-14 14:08:00,78.0,49.7,29.82,NW,317,0.0,0.0,37,0.00,,---,0.00,VWS V13.00,2013-08-14 20:08:00,
2013-08-14 14:13:00,78.4,51.4,29.82,North,5,0.0,7.0,39,0.00,,---,0.00,VWS V13.00,2013-08-14 20:13:00,
2013-08-14 14:18:00,78.7,55.6,29.82,NE,43,5.0,11.0,45,0.00,,---,0.00,VWS V13.00,2013-08-14 20:18:00,
2013-08-14 14:24:00,79.2,51.4,29.81,ENE,65,5.0,11.0,38,0.00,,---,0.00,VWS V13.00,2013-08-14 20:24:00,
2013-08-14 14:30:00,79.6,53.8,29.81,NNE,26,6.0,11.0,41,0.00,,---,0.00,VWS V13.00,2013-08-14 20:30:00,
2013-08-14 14:36:00,80.2,51.6,29.81,North,11,0.0,11.0,37,0.00,,---,0.00,VWS V13.00,2013-08-14 20:36:00,
2013-08-14 14:41:00,80.2,55.0,29.80,NNE,19,0.0,0.0,42,0.00,,---,0.00,VWS V13.00,2013-08-14 20:41:00,
2013-08-14 14:46:00,79.8,53.4,29.80,NNE,24,5.0,11.0,40,0.00,,---,0.00,VWS V13.00,2013-08-14 20:46:00,
2013-08-14 14:51:00,79.3,54.2,29.80,NNE,32,2.0,11.0,42,0.00,,---,0.00,VWS V13.00,2013-08-14 20:51:00,
2013-08-14 14:56:00,78.6,52.3,29.82,NE,44,9.0,11.0,40,0.00,,---,0.00,VWS V13.00,2013-08-14 20:56:00,
2013-08-14 15:01:00,78.0,53.7,29.82,NNE,18,0.0,11.0,43,0.00,,---,0.00,VWS V13.00,2013-08-14 21:01:00,
2013-08-14 15:06:00,78.0,56.2,29.82,NE,46,0.0,11.0,47,0.00,,---,0.00,VWS V13.00,2013-08-14 21:06:00,
2013-08-14 15:11:00,78.2,54.5,29.83,NNE,30,6.0,10.0,44,0.00,,---,0.00,VWS V13.00,2013-08-14 21:11:00,
2013-08-14 15:16:00,78.6,51.6,29.83,North,11,0.0,10.0,39,0.00,,---,0.00,VWS V13.00,2013-08-14 21:16:00,
2013-08-14 15:21:00,78.6,51.6,29.83,NNE,25,4.0,10.0,39,0.00,,---,0.00,VWS V13.00,2013-08-14 21:21:00,
2013-08-14 15:26:00,78.4,51.4,29.82,North,350,7.0,10.0,39,0.00,,---,0.00,VWS V13.00,2013-08-14 21:26:00,
2013-08-14 15:31:00,78.0,50.4,29.82,North,355,0.0,10.0,38,0.00,,---,0.00,VWS V13.00,2013-08-14 21:31:00,
2013-08-14 15:36:00,77.7,50.8,29.82,NNW,345,0.0,10.0,39,0.00,,---,0.00,VWS V13.00,2013-08-14 21:36:00,
2013-08-14 15:41:00,77.8,52.2,29.83,NNW,345,0.0,0.0,41,0.00,,---,0.00,VWS V13.00,2013-08-14 21:41:00,
2013-08-14 15:46:00,78.2,49.8,29.83,NNW,341,0.0,0.0,37,0.00,,---,0.00,VWS V13.00,2013-08-14 21:46:00,
2013-08-14 15:51:00,78.7,50.3,29.83,NNW,336,0.0,3.0,37,0.00,,---,0.00,VWS V13.00,2013-08-14 21:51:00,
2013-08-14 15:56:00,79.1,49.1,29.82,West,261,5.0,5.0,35,0.00,,---,0.00,VWS V13.00,2013-08-14 21:56:00,
2013-08-14 16:01:00,79.2,48.4,29.82,WNW,284,0.0,5.0,34,0.00,,---,0.00,VWS V13.00,2013-08-14 22:01:00,
2013-08-14 16:06:00,79.3,51.5,29.82,WNW,288,0.0,5.0,38,0.00,,---,0.00,VWS V13.00,2013-08-14 22:06:00,
2013-08-14 16:11:00,79.4,51.6,29.82,NNW,339,4.0,6.0,38,0.00,,---,0.00,VWS V13.00,2013-08-14 22:11:00,
2013-08-14 16:16:00,79.3,51.5,29.82,NNW,329,3.0,7.0,38,0.00,,---,0.00,VWS V13.00,2013-08-14 22:16:00,
2013-08-14 16:21:00,79.4,53.0,29.82,NNW,346,6.0,7.0,40,0.00,,---,0.00,VWS V13.00,2013-08-14 22:21:00,
2013-08-14 16:26:00,79.6,52.5,29.81,NNE,29,3.0,7.0,39,0.00,,---,0.00,VWS V13.00,2013-08-14 22:26:00,
2013-08-14 16:31:00,79.9,48.3,29.81,NE,52,0.0,7.0,33,0.00,,---,0.00,VWS V13.00,2013-08-14 22:31:00,
2013-08-14 16:36:00,80.2,50.8,29.81,North,5,6.0,11.0,36,0.00,,---,0.00,VWS V13.00,2013-08-14 22:36:00,
2013-08-14 16:41:00,80.3,53.1,29.81,NNE,20,4.0,7.0,39,0.00,,---,0.00,VWS V13.00,2013-08-14 22:41:00,
2013-08-14 16:46:00,80.6,52.0,29.81,NNE,32,0.0,7.0,37,0.00,,---,0.00,VWS V13.00,2013-08-14 22:46:00,
2013-08-14 16:51:00,80.5,51.9,29.81,North,360,4.0,10.0,37,0.00,,---,0.00,VWS V13.00,2013-08-14 22:51:00,
2013-08-14 16:56:00,80.2,50.8,29.79,North,5,0.0,10.0,36,0.00,,---,0.00,VWS V13.00,2013-08-14 22:56:00,
2013-08-14 17:01:00,80.1,51.5,29.79,North,5,0.0,10.0,37,0.00,,---,0.00,VWS V13.00,2013-08-14 23:01:00,
2013-08-14 17:06:00,79.9,52.0,29.79,NNE,26,0.0,10.0,38,0.00,,---,0.00,VWS V13.00,2013-08-14 23:06:00,
2013-08-14 17:11:00,79.7,51.9,29.79,NNE,26,0.0,1.0,38,0.00,,---,0.00,VWS V13.00,2013-08-14 23:11:00,
2013-08-14 17:16:00,79.9,52.0,29.79,NNE,28,0.0,1.0,38,0.00,,---,0.00,VWS V13.00,2013-08-14 23:16:00,
2013-08-14 17:21:00,79.5,49.5,29.79,ENE,60,0.0,5.0,35,0.00,,---,0.00,VWS V13.00,2013-08-14 23:21:00,
2013-08-14 17:26:00,78.8,52.5,29.79,ENE,76,3.0,9.0,40,0.00,,---,0.00,VWS V13.00,2013-08-14 23:26:00,
2013-08-14 17:31:00,78.0,52.4,29.79,ENE,77,15.0,15.0,41,0.00,,---,0.00,VWS V13.00,2013-08-14 23:31:00,
2013-08-14 17:36:00,75.9,56.0,29.79,East,93,11.0,16.0,50,0.00,,---,0.00,VWS V13.00,2013-08-14 23:36:00,
2013-08-14 17:41:00,73.9,56.7,29.81,East,91,13.0,24.0,55,0.00,,---,0.00,VWS V13.00,2013-08-14 23:41:00,
2013-08-14 17:46:00,72.8,57.2,29.81,East,101,16.0,24.0,58,0.00,,---,0.00,VWS V13.00,2013-08-14 23:46:00,
2013-08-14 17:51:00,72.2,57.6,29.81,East,93,14.0,24.0,60,0.00,,---,0.00,VWS V13.00,2013-08-14 23:51:00,
2013-08-14 17:56:00,72.2,58.0,29.83,ESE,107,10.0,24.0,61,0.00,,---,0.00,VWS V13.00,2013-08-14 23:56:00,
2013-08-14 18:01:00,71.7,56.6,29.83,East,89,9.0,24.0,59,0.00,,---,0.00,VWS V13.00,2013-08-15 00:01:00,
2013-08-14 18:06:00,71.3,57.2,29.83,ESE,116,19.0,24.0,61,0.00,,---,0.00,VWS V13.00,2013-08-15 00:06:00,
2013-08-14 18:11:00,71.0,56.9,29.83,East,97,13.0,24.0,61,0.00,,---,0.00,VWS V13.00,2013-08-15 00:11:00,
2013-08-14 18:16:00,70.7,57.1,29.83,ESE,107,10.0,24.0,62,0.00,,---,0.00,VWS V13.00,2013-08-15 00:16:00,
2013-08-14 18:21:00,70.6,57.4,29.83,East,88,12.0,24.0,63,0.00,,---,0.00,VWS V13.00,2013-08-15 00:21:00,
2013-08-14 18:26:00,70.5,57.8,29.84,ESE,103,7.0,24.0,64,0.00,,---,0.00,VWS V13.00,2013-08-15 00:26:00,
2013-08-14 18:31:00,70.8,58.0,29.84,SE,128,10.0,24.0,64,0.00,,---,0.00,VWS V13.00,2013-08-15 00:31:00,
2013-08-14 18:36:00,71.1,58.3,29.84,ESE,116,0.0,24.0,64,0.00,,---,0.00,VWS V13.00,2013-08-15 00:36:00,
2013-08-14 18:41:00,71.1,57.0,29.84,ESE,114,4.0,14.0,61,0.00,,---,0.00,VWS V13.00,2013-08-15 00:41:00,
2013-08-14 18:46:00,71.0,55.5,29.84,ESE,112,4.0,15.0,58,0.00,,---,0.00,VWS V13.00,2013-08-15 00:46:00,
2013-08-14 18:51:00,71.0,56.0,29.84,ESE,113,7.0,15.0,59,0.00,,---,0.00,VWS V13.00,2013-08-15 00:51:00,
2013-08-14 18:56:00,71.0,55.0,29.83,SE,134,4.0,15.0,57,0.00,,---,0.00,VWS V13.00,2013-08-15 00:56:00,
2013-08-14 19:01:00,71.0,55.0,29.83,ESE,117,5.0,15.0,57,0.00,,---,0.00,VWS V13.00,2013-08-15 01:01:00,
2013-08-14 19:06:00,71.1,55.1,29.83,ESE,108,5.0,15.0,57,0.00,,---,0.00,VWS V13.00,2013-08-15 01:06:00,
2013-08-14 19:11:00,71.1,54.6,29.83,ESE,103,5.0,7.0,56,0.00,,---,0.00,VWS V13.00,2013-08-15 01:11:00,
2013-08-14 19:16:00,71.1,54.1,29.83,ESE,116,5.0,12.0,55,0.00,,---,0.00,VWS V13.00,2013-08-15 01:16:00,
2013-08-14 19:21:00,71.0,54.5,29.83,ESE,123,0.0,12.0,56,0.00,,---,0.00,VWS V13.00,2013-08-15 01:21:00,
2013-08-14 19:26:00,70.8,54.3,29.83,SE,126,0.0,12.0,56,0.00,,---,0.00,VWS V13.00,2013-08-15 01:26:00,
2013-08-14 19:31:00,70.7,54.2,29.83,ESE,116,0.0,12.0,56,0.00,,---,0.00,VWS V13.00,2013-08-15 01:31:00,
2013-08-14 19:36:00,70.6,54.2,29.83,ESE,117,0.0,12.0,56,0.00,,---,0.00,VWS V13.00,2013-08-15 01:36:00,
2013-08-14 19:41:00,70.5,54.1,29.83,ESE,114,0.0,0.0,56,0.00,,---,0.00,VWS V13.00,2013-08-15 01:41:00,
2013-08-14 19:46:00,70.2,54.8,29.83,ESE,105,0.0,0.0,58,0.00,,---,0.00,VWS V13.00,2013-08-15 01:46:00,
2013-08-14 19:51:00,69.9,54.9,29.83,ESE,106,3.0,7.0,59,0.00,,---,0.00,VWS V13.00,2013-08-15 01:51:00,
2013-08-14 19:56:00,69.4,55.4,29.82,ESE,105,0.0,7.0,61,0.00,,---,0.00,VWS V13.00,2013-08-15 01:56:00,
2013-08-14 20:01:00,68.9,54.9,29.82,ESE,105,0.0,7.0,61,0.00,,---,0.00,VWS V13.00,2013-08-15 02:01:00,
2013-08-14 20:06:00,68.5,55.0,29.82,ESE,105,0.0,7.0,62,0.00,,---,0.00,VWS V13.00,2013-08-15 02:06:00,
2013-08-14 20:11:00,68.1,54.6,29.83,ESE,105,0.0,0.0,62,0.00,,---,0.00,VWS V13.00,2013-08-15 02:11:00,
2013-08-14 20:16:00,67.8,54.8,29.83,ESE,109,4.0,5.0,63,0.00,,---,0.00,VWS V13.00,2013-08-15 02:16:00,
2013-08-14 20:21:00,67.6,54.6,29.83,ESE,118,4.0,6.0,63,0.00,,---,0.00,VWS V13.00,2013-08-15 02:21:00,
2013-08-14 20:26:00,67.3,54.7,29.83,ESE,118,0.0,6.0,64,0.00,,---,0.00,VWS V13.00,2013-08-15 02:26:00,
2013-08-14 20:31:00,67.0,54.9,29.83,ESE,118,0.0,6.0,65,0.00,,---,0.00,VWS V13.00,2013-08-15 02:31:00,
2013-08-14 20:36:00,66.6,54.9,29.83,ESE,118,0.0,6.0,66,0.00,,---,0.00,VWS V13.00,2013-08-15 02:36:00,
2013-08-14 20:41:00,66.2,54.5,29.84,ESE,119,0.0,0.0,66,0.00,,---,0.00,VWS V13.00,2013-08-15 02:41:00,
2013-08-14 20:46:00,65.7,54.5,29.84,ESE,119,0.0,0.0,67,0.00,,---,0.00,VWS V13.00,2013-08-15 02:46:00,
2013-08-14 20:51:00,65.2,54.0,29.84,ESE,119,0.0,0.0,67,0.00,,---,0.00,VWS V13.00,2013-08-15 02:51:00,
2013-08-14 20:56:00,64.8,54.4,29.83,ESE,118,0.0,0.0,69,0.00,,---,0.00,VWS V13.00,2013-08-15 02:56:00,
2013-08-14 21:01:00,64.5,54.1,29.83,ESE,119,4.0,6.0,69,0.00,,---,0.00,VWS V13.00,2013-08-15 03:01:00,
2013-08-14 21:06:00,64.4,54.4,29.83,ESE,119,4.0,6.0,70,0.00,,---,0.00,VWS V13.00,2013-08-15 03:06:00,
2013-08-14 21:11:00,63.8,54.2,29.83,ESE,120,4.0,5.0,71,0.00,,---,0.00,VWS V13.00,2013-08-15 03:11:00,
2013-08-14 21:16:00,63.0,53.8,29.83,ESE,122,6.0,7.0,72,0.00,,---,0.00,VWS V13.00,2013-08-15 03:16:00,
2013-08-14 21:21:00,62.4,53.6,29.83,SE,125,6.0,7.0,73,0.00,,---,0.00,VWS V13.00,2013-08-15 03:21:00,
2013-08-14 21:26:00,62.1,53.7,29.85,SE,134,7.0,11.0,74,0.00,,---,0.00,VWS V13.00,2013-08-15 03:26:00,
2013-08-14 21:31:00,61.8,53.4,29.85,SE,132,7.0,11.0,74,0.00,,---,0.00,VWS V13.00,2013-08-15 03:31:00,
2013-08-14 21:36:00,61.6,53.2,29.85,SE,132,5.0,11.0,74,0.00,,---,0.00,VWS V13.00,2013-08-15 03:36:00,
2013-08-14 21:41:00,61.1,53.1,29.84,SE,132,5.0,8.0,75,0.00,,---,0.00,VWS V13.00,2013-08-15 03:41:00,
2013-08-14 21:46:00,60.9,52.9,29.84,SE,130,7.0,10.0,75,0.00,,---,0.00,VWS V13.00,2013-08-15 03:46:00,
2013-08-14 21:51:00,60.9,52.9,29.84,SE,132,5.0,10.0,75,0.00,,---,0.00,VWS V13.00,2013-08-15 03:51:00,
2013-08-14 21:56:00,60.8,52.8,29.83,SE,136,11.0,11.0,75,0.00,,---,0.00,VWS V13.00,2013-08-15 03:56:00,
2013-08-14 22:01:00,60.7,53.1,29.83,SE,130,10.0,13.0,76,0.00,,---,0.00,VWS V13.00,2013-08-15 04:01:00,
2013-08-14 22:06:00,60.4,52.8,29.83,ESE,118,5.0,13.0,76,0.00,,---,0.00,VWS V13.00,2013-08-15 04:06:00,
2013-08-14 22:11:00,60.0,52.8,29.85,SE,128,5.0,6.0,77,0.00,,---,0.00,VWS V13.00,2013-08-15 04:11:00,
2013-08-14 22:16:00,59.4,52.5,29.85,SE,128,0.0,6.0,78,0.00,,---,0.00,VWS V13.00,2013-08-15 04:16:00,
2013-08-14 22:21:00,59.0,52.5,29.85,SE,134,0.0,6.0,79,0.00,,---,0.00,VWS V13.00,2013-08-15 04:21:00,
2013-08-14 22:26:00,58.7,52.6,29.85,SE,136,7.0,9.0,80,0.00,,---,0.00,VWS V13.00,2013-08-15 04:26:00,
2013-08-14 22:31:00,58.4,52.6,29.85,SE,137,10.0,11.0,81,0.00,,---,0.00,VWS V13.00,2013-08-15 04:31:00,
2013-08-14 22:36:00,58.4,52.6,29.85,SE,134,7.0,12.0,81,0.00,,---,0.00,VWS V13.00,2013-08-15 04:36:00,
2013-08-14 22:41:00,58.3,52.5,29.86,SE,130,7.0,10.0,81,0.00,,---,0.00,VWS V13.00,2013-08-15 04:41:00,
2013-08-14 22:46:00,58.1,52.3,29.86,SE,134,9.0,11.0,81,0.00,,---,0.00,VWS V13.00,2013-08-15 04:46:00,
2013-08-14 22:51:00,57.7,52.2,29.86,SE,132,7.0,11.0,82,0.00,,---,0.00,VWS V13.00,2013-08-15 04:51:00,
2013-08-14 22:56:00,57.5,52.1,29.85,SE,130,10.0,11.0,82,0.00,,---,0.00,VWS V13.00,2013-08-15 04:56:00,
2013-08-14 23:01:00,57.7,51.9,29.85,SE,134,7.0,11.0,81,0.00,,---,0.00,VWS V13.00,2013-08-15 05:01:00,
2013-08-14 23:06:00,57.8,52.0,29.85,SE,132,7.0,11.0,81,0.00,,---,0.00,VWS V13.00,2013-08-15 05:06:00,
2013-08-14 23:11:00,57.6,51.8,29.85,SE,132,9.0,9.0,81,0.00,,---,0.00,VWS V13.00,2013-08-15 05:11:00,
2013-08-14 23:16:00,57.4,51.6,29.85,SE,131,8.0,10.0,81,0.00,,---,0.00,VWS V13.00,2013-08-15 05:16:00,
2013-08-14 23:21:00,57.4,51.6,29.85,SE,130,7.0,10.0,81,0.00,,---,0.00,VWS V13.00,2013-08-15 05:21:00,
2013-08-14 23:26:00,57.2,51.8,29.85,SE,130,10.0,11.0,82,0.00,,---,0.00,VWS V13.00,2013-08-15 05:26:00,
2013-08-14 23:31:00,57.1,51.7,29.85,SE,136,11.0,12.0,82,0.00,,---,0.00,VWS V13.00,2013-08-15 05:31:00,
2013-08-14 23:36:00,57.4,51.6,29.85,SE,134,10.0,12.0,81,0.00,,---,0.00,VWS V13.00,2013-08-15 05:36:00,
2013-08-14 23:41:00,57.7,51.6,29.85,SE,127,9.0,11.0,80,0.00,,---,0.00,VWS V13.00,2013-08-15 05:41:00,
2013-08-14 23:46:00,57.3,51.5,29.85,SE,126,6.0,11.0,81,0.00,,---,0.00,VWS V13.00,2013-08-15 05:46:00,
2013-08-14 23:51:00,56.9,51.1,29.85,SE,139,7.0,11.0,81,0.00,,---,0.00,VWS V13.00,2013-08-15 05:51:00,
2013-08-14 23:56:00,56.6,51.2,29.84,SE,142,7.0,11.0,82,0.00,,---,0.00,VWS V13.00,2013-08-15 05:56:00,